SXM-9

Last updated on Sun Apr 12 2026 00:02:57 GMT+0000 (Coordinated Universal Time)

1 62259U 24234A 26101.07602854 -.00000203 00000+0 00000+0 0 9995 2 62259 0.0173 286.6514 0004604 28.9980 185.8629 1.00268659 4908
UTC large
Height (km)
Speed (km/s)
/
Latitude / Longitude
Inclination (degrees)
Orbital Period (minutes)
Azimuth
Elevation
Range (km)
Doppler Factor

Next 0 passes for location: London (51.5072 / 0.1276)

Sorry there are no passes over London.
SXM-9